Buffalo, NY

12:50 PM EST on December 11, 2019 (GMT -0500)
Buffalo Niagara International

Weather History for KBUF - July, 2019

Change the Weather History Date:

Thursday, July 18, 2019

  Actual Average Record
Temperature  
Mean Temperature 78 °F 71 °F  
Max Temperature 85 °F 80 °F 94 °F (1968)
Min Temperature 71 °F 63 °F 50 °F (1924)
Degree Days  
Heating Degree Days 0 0  
Month to date heating degree days 0 2  
Since 1 June heating degree days 62 66  
Since 1 July heating degree days 0 2  
Cooling Degree Days 13 7  
Month to date cooling degree days 159 115  
Year to date cooling degree days 242 244  
Since 1 June cooling degree days 234 218  
Growing Degree Days 28 (Base 50)    
Moisture  
Dew Point 69 °F    
Average Humidity 74    
Maximum Humidity 93    
Minimum Humidity 55    
Precipitation  
Precipitation 0.00 in 0.11 in 1.34 in (1897)
Month to date precipitation 0.97 1.79  
Year to date precipitation 23.89 20.46  
Snow  
Snow 0.00 in 0.00 in 0.00 in ()
Month to date snowfall 0.0 0.0  
Since 1 June snowfall 0.0 0.0  
Since 1 July snowfall 0.0 0.0  
Snow Depth 0.00 in    
Sea Level Pressure  
Sea Level Pressure 29.91 in    
Wind  
Wind Speed 6 mph (ENE)    
Max Wind Speed 14 mph    
Max Gust Speed 16 mph    
Visibility 9 miles    
Events      
T = Trace of Precipitation, MM = Missing Value Source: NWS Daily Summary

Daily Weather History Graph

Daily Weather History Graph

Search for Another Location

Airport or City:

Astronomy

Jul. 18, 2019 Rise Set
Actual Time 5:52 AM EDT 8:49 PM EDT
Civil Twilight 5:18 AM EDT 9:23 PM EDT
Nautical Twilight 4:35 AM EDT 10:06 PM EDT
Astronomical Twilight 3:44 AM EDT 10:56 PM EDT
Moon 10:12 PM EDT (7/18) 7:20 AM EDT (7/18)
Length of Visible Light 16h 05m
Length of Day
14h 57m
Full, 97% of the Moon is Illuminated
Jul 18
Full
Jul 24
Last Quarter
Jul 31
New
Aug 7
First Quarter
Aug 15
Full

Hourly Weather History & Observations

Time (EDT) Temp. Heat Index Dew Point Humidity Pressure Visibility Wind Dir Wind Speed Gust Speed Precip Events Conditions
12:18 AM 73.0 °F - 70.0 °F 90% 29.91 in 10.0 mi ENE 6.9 mph - N/A   Mostly Cloudy
12:28 AM 73.0 °F - 70.0 °F 90% 29.91 in 10.0 mi East 8.1 mph - N/A   Mostly Cloudy
12:37 AM 73.0 °F - 70.0 °F 90% 29.91 in 10.0 mi East 6.9 mph - N/A   Mostly Cloudy
12:54 AM 73.0 °F - 70.0 °F 90% 29.91 in 10.0 mi ENE 5.8 mph - N/A   Mostly Cloudy
1:54 AM 72.0 °F - 69.1 °F 91% 29.90 in 10.0 mi ENE 4.6 mph - N/A   Scattered Clouds
2:54 AM 71.1 °F - 69.1 °F 93% 29.91 in 8.0 mi NNE 3.5 mph - N/A   Partly Cloudy
3:08 AM 71.1 °F - 69.1 °F 93% 29.91 in 7.0 mi ENE 5.8 mph - N/A   Mostly Cloudy
3:54 AM 71.1 °F - 69.1 °F 93% 29.91 in 9.0 mi NNE 5.8 mph - N/A   Overcast
4:45 AM 71.1 °F - 69.1 °F 93% 29.93 in 10.0 mi NE 5.8 mph - N/A   Overcast
4:54 AM 71.1 °F - 69.1 °F 93% 29.92 in 10.0 mi NE 5.8 mph - N/A   Overcast
5:20 AM 72.0 °F - 69.1 °F 91% 29.93 in 10.0 mi NNE 3.5 mph - N/A   Overcast
5:46 AM 71.1 °F - 69.1 °F 93% 29.93 in 10.0 mi NE 3.5 mph - N/A   Overcast
5:54 AM 71.1 °F - 69.1 °F 93% 29.92 in 10.0 mi NNE 3.5 mph - N/A   Overcast
6:05 AM 72.0 °F - 69.1 °F 91% 29.93 in 10.0 mi NNE 3.5 mph - N/A   Overcast
6:25 AM 72.0 °F - 69.1 °F 91% 29.94 in 10.0 mi NE 3.5 mph - N/A   Overcast
6:34 AM 71.1 °F - 69.1 °F 93% 29.94 in 8.0 mi NE 6.9 mph - N/A   Overcast
6:54 AM 72.0 °F - 69.1 °F 91% 29.94 in 6.0 mi NNE 5.8 mph - N/A   Overcast
7:01 AM 71.1 °F - 69.1 °F 93% 29.96 in 5.0 mi NE 5.8 mph - N/A   Overcast
7:28 AM 72.0 °F - 69.1 °F 91% 29.95 in 6.0 mi ENE 8.1 mph - N/A   Overcast
7:54 AM 72.0 °F - 68.0 °F 87% 29.95 in 5.0 mi ENE 6.9 mph - N/A   Overcast
8:54 AM 72.0 °F - 68.0 °F 87% 29.94 in 7.0 mi ENE 6.9 mph - N/A   Overcast
9:54 AM 73.9 °F - 68.0 °F 82% 29.97 in 10.0 mi NNE 4.6 mph - N/A   Overcast
10:23 AM 75.0 °F - 68.0 °F 79% 29.96 in 10.0 mi East 5.8 mph - N/A   Mostly Cloudy
10:54 AM 75.9 °F - 69.1 °F 79% 29.95 in 10.0 mi Variable 3.5 mph - N/A   Mostly Cloudy
11:16 AM 77.0 °F - 69.1 °F 76% 29.94 in 10.0 mi East 4.6 mph - N/A   Scattered Clouds
11:54 AM 80.1 °F 82.7 °F 68.0 °F 67% 29.94 in 10.0 mi WNW 3.5 mph - N/A   Mostly Cloudy
12:23 PM 80.1 °F 82.7 °F 68.0 °F 67% 29.93 in 10.0 mi Variable 4.6 mph - N/A   Mostly Cloudy
12:54 PM 82.0 °F 84.9 °F 68.0 °F 62% 29.91 in 10.0 mi Calm Calm - N/A   Scattered Clouds
1:54 PM 82.0 °F 84.9 °F 68.0 °F 62% 29.91 in 10.0 mi West 8.1 mph - N/A   Mostly Cloudy
2:54 PM 84.0 °F 86.5 °F 66.9 °F 56% 29.92 in 10.0 mi SSW 6.9 mph - N/A   Scattered Clouds
3:54 PM 84.0 °F 87.0 °F 68.0 °F 58% 29.91 in 10.0 mi SW 11.5 mph - N/A   Partly Cloudy
4:54 PM 84.0 °F 87.0 °F 68.0 °F 58% 29.88 in 10.0 mi SW 10.4 mph - N/A   Scattered Clouds
5:54 PM 82.9 °F 85.8 °F 68.0 °F 60% 29.86 in 10.0 mi SW 8.1 mph - N/A   Scattered Clouds
6:54 PM 81.0 °F 83.3 °F 66.9 °F 62% 29.85 in 10.0 mi SSW 10.4 mph - N/A   Scattered Clouds
7:54 PM 81.0 °F 83.0 °F 66.0 °F 60% 29.84 in 10.0 mi SSW 5.8 mph - N/A   Scattered Clouds
8:54 PM 79.0 °F - 66.9 °F 66% 29.85 in 10.0 mi SW 5.8 mph - N/A   Scattered Clouds
9:54 PM 78.1 °F - 68.0 °F 71% 29.86 in 10.0 mi SSW 4.6 mph - N/A   Mostly Cloudy
10:54 PM 75.9 °F - 68.0 °F 76% 29.86 in 10.0 mi SSW 5.8 mph - N/A   Mostly Cloudy
11:54 PM 75.0 °F - 69.1 °F 82% 29.84 in 10.0 mi SSW 8.1 mph - N/A   Partly Cloudy